Time,TemperatureF,DewpointF,PressureIn,WindDirection,WindDirectionDegrees,WindSpeedMPH,WindSpeedGustMPH,Humidity,HourlyPrecipIn,Conditions,Clouds,dailyrainin,SoftwareType,DateUTC
2013-03-22 00:00:00,6.4,-15.9,0.00,WSW,252,0.0,0.0,34,0.00,,,0.00,VWS V13.01,2013-03-22 05:00:00,
2013-03-22 00:05:00,6.4,-15.9,0.00,WSW,252,0.0,0.0,34,0.00,,,0.00,VWS V13.01,2013-03-22 05:05:00,
2013-03-22 00:10:00,6.3,-16.1,0.00,WSW,252,0.0,0.0,34,0.00,,,0.00,VWS V13.01,2013-03-22 05:10:00,
2013-03-22 00:15:00,6.3,-16.1,0.00,WSW,252,0.0,0.0,34,0.00,,,0.00,VWS V13.01,2013-03-22 05:15:00,
2013-03-22 00:20:00,6.1,-16.3,0.00,WSW,252,0.0,0.0,34,0.00,,,0.00,VWS V13.01,2013-03-22 05:20:00,
2013-03-22 00:25:00,6.1,-16.3,0.00,WSW,252,0.0,0.0,34,0.00,,,0.00,VWS V13.01,2013-03-22 05:25:00,
2013-03-22 00:30:00,5.7,-16.6,0.00,WSW,252,0.0,0.0,34,0.00,,,0.00,VWS V13.01,2013-03-22 05:30:00,
2013-03-22 00:35:00,5.5,-16.7,0.00,WSW,252,0.0,0.0,34,0.00,,,0.00,VWS V13.01,2013-03-22 05:35:00,
2013-03-22 00:40:00,5.5,-16.7,0.00,WSW,252,0.0,0.0,34,0.00,,,0.00,VWS V13.01,2013-03-22 05:40:00,
2013-03-22 00:45:00,5.5,-16.7,0.00,WSW,252,0.0,0.0,34,0.00,,,0.00,VWS V13.01,2013-03-22 05:45:00,
2013-03-22 00:50:00,5.5,-16.7,0.00,WSW,252,0.0,0.0,34,0.00,,,0.00,VWS V13.01,2013-03-22 05:50:00,
2013-03-22 00:55:00,5.5,-16.7,0.00,WSW,252,0.0,0.0,34,0.00,,,0.00,VWS V13.01,2013-03-22 05:55:00,
2013-03-22 01:00:00,5.4,-16.9,0.00,WSW,252,0.0,0.0,34,0.00,,,0.00,VWS V13.01,2013-03-22 06:00:00,
2013-03-22 01:05:00,5.4,-16.9,0.00,WSW,252,0.0,0.0,34,0.00,,,0.00,VWS V13.01,2013-03-22 06:05:00,
2013-03-22 01:10:00,5.0,-17.2,0.00,WSW,252,0.0,0.0,34,0.00,,,0.00,VWS V13.01,2013-03-22 06:10:00,
2013-03-22 01:15:00,4.6,-17.5,0.00,WSW,252,0.0,0.0,34,0.00,,,0.00,VWS V13.01,2013-03-22 06:15:00,
2013-03-22 01:20:00,5.2,-17.1,0.00,WSW,252,0.0,0.0,34,0.00,,,0.00,VWS V13.01,2013-03-22 06:20:00,
2013-03-22 01:25:00,5.4,-16.9,0.00,WSW,252,0.0,0.0,34,0.00,,,0.00,VWS V13.01,2013-03-22 06:25:00,
2013-03-22 01:30:00,5.0,-17.2,0.00,WSW,252,0.0,0.0,34,0.00,,,0.00,VWS V13.01,2013-03-22 06:30:00,
2013-03-22 01:35:00,4.8,-17.4,0.00,WSW,252,0.0,0.0,34,0.00,,,0.00,VWS V13.01,2013-03-22 06:35:00,
2013-03-22 01:40:00,4.5,-17.7,0.00,WSW,252,0.0,0.0,34,0.00,,,0.00,VWS V13.01,2013-03-22 06:40:00,
2013-03-22 01:45:00,4.3,-17.9,0.00,WSW,252,0.0,0.0,34,0.00,,,0.00,VWS V13.01,2013-03-22 06:45:00,
2013-03-22 01:50:00,4.1,-18.0,0.00,WSW,252,0.0,0.0,34,0.00,,,0.00,VWS V13.01,2013-03-22 06:50:00,
2013-03-22 01:55:00,4.1,-18.0,0.00,WSW,252,0.0,0.0,34,0.00,,,0.00,VWS V13.01,2013-03-22 06:55:00,
2013-03-22 02:00:00,4.1,-18.0,0.00,WSW,252,0.0,0.0,34,0.00,,,0.00,VWS V13.01,2013-03-22 07:00:00,
2013-03-22 02:05:00,4.1,-18.0,0.00,WSW,252,0.0,0.0,34,0.00,,,0.00,VWS V13.01,2013-03-22 07:05:00,
2013-03-22 02:10:00,3.7,-18.4,0.00,WSW,252,0.0,0.0,34,0.00,,,0.00,VWS V13.01,2013-03-22 07:10:00,
2013-03-22 02:15:00,3.6,-18.5,0.00,WSW,252,0.0,0.0,34,0.00,,,0.00,VWS V13.01,2013-03-22 07:15:00,
2013-03-22 02:20:00,3.4,-18.7,0.00,WSW,252,0.0,0.0,34,0.00,,,0.00,VWS V13.01,2013-03-22 07:20:00,
2013-03-22 02:25:00,3.2,-18.8,0.00,WSW,252,0.0,0.0,34,0.00,,,0.00,VWS V13.01,2013-03-22 07:25:00,
2013-03-22 02:30:00,3.2,-18.8,0.00,WSW,252,0.0,0.0,34,0.00,,,0.00,VWS V13.01,2013-03-22 07:30:00,
2013-03-22 02:35:00,2.8,-19.1,0.00,WSW,252,0.0,0.0,34,0.00,,,0.00,VWS V13.01,2013-03-22 07:35:00,
2013-03-22 02:40:00,3.0,-19.0,0.00,WSW,252,0.0,0.0,34,0.00,,,0.00,VWS V13.01,2013-03-22 07:40:00,
2013-03-22 02:45:00,2.8,-19.1,0.00,WSW,252,0.0,0.0,34,0.00,,,0.00,VWS V13.01,2013-03-22 07:45:00,
2013-03-22 02:50:00,2.5,-19.5,0.00,WSW,252,0.0,0.0,34,0.00,,,0.00,VWS V13.01,2013-03-22 07:50:00,
2013-03-22 02:55:00,2.3,-19.6,0.00,WSW,252,0.0,0.0,34,0.00,,,0.00,VWS V13.01,2013-03-22 07:55:00,
2013-03-22 03:00:00,2.1,-19.8,0.00,WSW,252,0.0,0.0,34,0.00,,,0.00,VWS V13.01,2013-03-22 08:00:00,
2013-03-22 03:05:00,1.9,-20.0,0.00,WSW,252,0.0,0.0,34,0.00,,,0.00,VWS V13.01,2013-03-22 08:05:00,
2013-03-22 03:10:00,1.8,-20.1,0.00,WSW,252,0.0,0.0,34,0.00,,,0.00,VWS V13.01,2013-03-22 08:10:00,
2013-03-22 03:15:00,1.6,-20.3,0.00,WSW,252,0.0,0.0,34,0.00,,,0.00,VWS V13.01,2013-03-22 08:15:00,
2013-03-22 03:20:00,1.2,-20.6,0.00,WSW,252,0.0,0.0,34,0.00,,,0.00,VWS V13.01,2013-03-22 08:20:00,
2013-03-22 03:25:00,1.2,-20.6,0.00,WSW,252,0.0,0.0,34,0.00,,,0.00,VWS V13.01,2013-03-22 08:25:00,
2013-03-22 03:30:00,1.2,-20.6,0.00,WSW,252,0.0,0.0,34,0.00,,,0.00,VWS V13.01,2013-03-22 08:30:00,
2013-03-22 03:35:00,0.9,-20.9,0.00,WSW,252,0.0,0.0,34,0.00,,,0.00,VWS V13.01,2013-03-22 08:35:00,
2013-03-22 03:40:00,0.7,-21.1,0.00,WSW,252,0.0,0.0,34,0.00,,,0.00,VWS V13.01,2013-03-22 08:40:00,
2013-03-22 03:45:00,0.7,-21.1,0.00,WSW,252,0.0,0.0,34,0.00,,,0.00,VWS V13.01,2013-03-22 08:45:00,
2013-03-22 03:50:00,0.9,-20.9,0.00,WSW,252,0.0,0.0,34,0.00,,,0.00,VWS V13.01,2013-03-22 08:50:00,
2013-03-22 03:55:00,0.9,-20.9,0.00,WSW,252,0.0,0.0,34,0.00,,,0.00,VWS V13.01,2013-03-22 08:55:00,
2013-03-22 04:00:00,0.7,-21.1,0.00,WSW,252,0.0,0.0,34,0.00,,,0.00,VWS V13.01,2013-03-22 09:00:00,
2013-03-22 04:05:00,0.5,-21.2,0.00,WSW,252,0.0,0.0,34,0.00,,,0.00,VWS V13.01,2013-03-22 09:05:00,
2013-03-22 04:10:00,0.3,-21.4,0.00,WSW,252,0.0,0.0,34,0.00,,,0.00,VWS V13.01,2013-03-22 09:10:00,
2013-03-22 04:15:00,0.3,-21.4,0.00,WSW,252,0.0,0.0,34,0.00,,,0.00,VWS V13.01,2013-03-22 09:15:00,
2013-03-22 04:20:00,0.3,-21.4,0.00,WSW,252,0.0,0.0,34,0.00,,,0.00,VWS V13.01,2013-03-22 09:20:00,
2013-03-22 04:25:00,0.0,-21.7,0.00,WSW,252,0.0,0.0,34,0.00,,,0.00,VWS V13.01,2013-03-22 09:25:00,
2013-03-22 04:30:00,-0.2,-21.9,0.00,WSW,252,0.0,0.0,34,0.00,,,0.00,VWS V13.01,2013-03-22 09:30:00,
2013-03-22 04:35:00,-0.4,-22.0,0.00,WSW,252,0.0,0.0,34,0.00,,,0.00,VWS V13.01,2013-03-22 09:35:00,
2013-03-22 04:40:00,-0.2,-21.9,0.00,WSW,252,0.0,0.0,34,0.00,,,0.00,VWS V13.01,2013-03-22 09:40:00,
2013-03-22 04:45:00,0.0,-21.7,0.00,WSW,252,0.0,0.0,34,0.00,,,0.00,VWS V13.01,2013-03-22 09:45:00,
2013-03-22 04:50:00,0.1,-21.6,0.00,WSW,252,0.0,0.0,34,0.00,,,0.00,VWS V13.01,2013-03-22 09:50:00,
2013-03-22 04:55:00,0.3,-21.4,0.00,WSW,252,0.0,0.0,34,0.00,,,0.00,VWS V13.01,2013-03-22 09:55:00,
2013-03-22 05:00:00,0.0,-21.7,0.00,WSW,252,0.0,0.0,34,0.00,,,0.00,VWS V13.01,2013-03-22 10:00:00,
2013-03-22 05:05:00,0.0,-21.7,0.00,WSW,252,0.0,0.0,34,0.00,,,0.00,VWS V13.01,2013-03-22 10:05:00,
2013-03-22 05:10:00,-0.2,-21.9,0.00,WSW,252,0.0,0.0,34,0.00,,,0.00,VWS V13.01,2013-03-22 10:10:00,
2013-03-22 05:15:00,-0.6,-22.2,0.00,WSW,252,0.0,0.0,34,0.00,,,0.00,VWS V13.01,2013-03-22 10:15:00,
2013-03-22 05:20:00,-0.9,-22.5,0.00,WSW,252,0.0,0.0,34,0.00,,,0.00,VWS V13.01,2013-03-22 10:20:00,
2013-03-22 05:25:00,-0.9,-22.5,0.00,WSW,252,0.0,0.0,34,0.00,,,0.00,VWS V13.01,2013-03-22 10:25:00,
2013-03-22 05:30:00,-1.1,-22.7,0.00,WSW,252,0.0,0.0,34,0.00,,,0.00,VWS V13.01,2013-03-22 10:30:00,
2013-03-22 05:35:00,-1.3,-22.9,0.00,WSW,252,0.0,0.0,34,0.00,,,0.00,VWS V13.01,2013-03-22 10:35:00,
2013-03-22 05:40:00,-1.3,-22.9,0.00,WSW,252,0.0,0.0,34,0.00,,,0.00,VWS V13.01,2013-03-22 10:40:00,
2013-03-22 05:45:00,-1.5,-23.0,0.00,WSW,252,0.0,0.0,34,0.00,,,0.00,VWS V13.01,2013-03-22 10:45:00,
2013-03-22 05:50:00,-1.8,-23.3,0.00,WSW,252,0.0,0.0,34,0.00,,,0.00,VWS V13.01,2013-03-22 10:50:00,
2013-03-22 05:55:00,-2.2,-23.7,0.00,WSW,252,0.0,0.0,34,0.00,,,0.00,VWS V13.01,2013-03-22 10:55:00,
2013-03-22 06:00:00,-2.0,-23.5,0.00,WSW,252,0.0,0.0,34,0.00,,,0.00,VWS V13.01,2013-03-22 11:00:00,
2013-03-22 06:05:00,-1.8,-23.3,0.00,WSW,252,0.0,0.0,34,0.00,,,0.00,VWS V13.01,2013-03-22 11:05:00,
2013-03-22 06:10:00,-1.8,-23.3,0.00,WSW,252,0.0,0.0,34,0.00,,,0.00,VWS V13.01,2013-03-22 11:10:00,
2013-03-22 06:15:00,-1.8,-23.3,0.00,WSW,252,0.0,0.0,34,0.00,,,0.00,VWS V13.01,2013-03-22 11:15:00,
2013-03-22 06:20:00,-2.2,-23.7,0.00,WSW,252,0.0,0.0,34,0.00,,,0.00,VWS V13.01,2013-03-22 11:20:00,
2013-03-22 06:25:00,-2.6,-24.0,0.00,WSW,252,0.0,0.0,34,0.00,,,0.00,VWS V13.01,2013-03-22 11:25:00,
2013-03-22 06:30:00,-2.7,-24.1,0.00,WSW,252,0.0,0.0,34,0.00,,,0.00,VWS V13.01,2013-03-22 11:30:00,
2013-03-22 06:35:00,-2.7,-24.1,0.00,WSW,252,0.0,0.0,34,0.00,,,0.00,VWS V13.01,2013-03-22 11:35:00,
2013-03-22 06:40:00,-2.6,-24.0,0.00,WSW,252,0.0,0.0,34,0.00,,,0.00,VWS V13.01,2013-03-22 11:40:00,
2013-03-22 06:45:00,-2.6,-24.0,0.00,WSW,252,0.0,0.0,34,0.00,,,0.00,VWS V13.01,2013-03-22 11:45:00,
2013-03-22 06:50:00,-2.6,-24.0,0.00,WSW,252,0.0,0.0,34,0.00,,,0.00,VWS V13.01,2013-03-22 11:50:00,
2013-03-22 06:55:00,-2.6,-24.0,0.00,WSW,252,0.0,0.0,34,0.00,,,0.00,VWS V13.01,2013-03-22 11:55:00,
2013-03-22 07:00:00,-2.6,-24.0,0.00,WSW,252,0.0,0.0,34,0.00,,,0.00,VWS V13.01,2013-03-22 12:00:00,
2013-03-22 07:05:00,-2.6,-24.0,0.00,WSW,252,0.0,0.0,34,0.00,,,0.00,VWS V13.01,2013-03-22 12:05:00,
2013-03-22 07:10:00,-2.6,-24.0,0.00,WSW,252,0.0,0.0,34,0.00,,,0.00,VWS V13.01,2013-03-22 12:10:00,
2013-03-22 07:15:00,-2.6,-24.0,0.00,WSW,252,0.0,0.0,34,0.00,,,0.00,VWS V13.01,2013-03-22 12:15:00,
2013-03-22 07:20:00,-2.2,-23.7,0.00,WSW,252,0.0,0.0,34,0.00,,,0.00,VWS V13.01,2013-03-22 12:20:00,
2013-03-22 07:25:00,-1.8,-23.3,0.00,WSW,252,0.0,0.0,34,0.00,,,0.00,VWS V13.01,2013-03-22 12:25:00,
2013-03-22 07:30:00,-1.5,-23.0,0.00,WSW,252,0.0,0.0,34,0.00,,,0.00,VWS V13.01,2013-03-22 12:30:00,
2013-03-22 07:35:00,-0.8,-22.4,0.00,WSW,252,0.0,0.0,34,0.00,,,0.00,VWS V13.01,2013-03-22 12:35:00,
2013-03-22 07:40:00,0.0,-21.7,0.00,WSW,252,0.0,0.0,34,0.00,,,0.00,VWS V13.01,2013-03-22 12:40:00,
2013-03-22 07:45:00,0.1,-21.6,0.00,WSW,252,0.0,0.0,34,0.00,,,0.00,VWS V13.01,2013-03-22 12:45:00,
2013-03-22 07:50:00,0.0,-21.7,0.00,WSW,252,0.0,0.0,34,0.00,,,0.00,VWS V13.01,2013-03-22 12:50:00,
2013-03-22 07:55:00,0.0,-21.7,0.00,WSW,252,0.0,0.0,34,0.00,,,0.00,VWS V13.01,2013-03-22 12:55:00,
2013-03-22 08:00:00,0.0,-21.7,0.00,WSW,252,0.0,0.0,34,0.00,,,0.00,VWS V13.01,2013-03-22 13:00:00,
2013-03-22 08:05:00,0.3,-21.4,0.00,WSW,252,0.0,0.0,34,0.00,,,0.00,VWS V13.01,2013-03-22 13:05:00,
2013-03-22 08:10:00,0.7,-21.1,0.00,WSW,252,0.0,0.0,34,0.00,,,0.00,VWS V13.01,2013-03-22 13:10:00,
2013-03-22 08:15:00,1.6,-20.3,0.00,WSW,252,0.0,0.0,34,0.00,,,0.00,VWS V13.01,2013-03-22 13:15:00,
2013-03-22 08:20:00,2.7,-19.3,0.00,WSW,252,0.0,0.0,34,0.00,,,0.00,VWS V13.01,2013-03-22 13:20:00,
2013-03-22 08:25:00,3.6,-18.5,0.00,WSW,252,0.0,0.0,34,0.00,,,0.00,VWS V13.01,2013-03-22 13:25:00,
2013-03-22 08:31:00,4.3,-17.9,0.00,WSW,252,0.0,0.0,34,0.00,,,0.00,VWS V13.01,2013-03-22 13:31:00,
2013-03-22 08:36:00,5.5,-16.7,0.00,WSW,252,0.0,0.0,34,0.00,,,0.00,VWS V13.01,2013-03-22 13:36:00,
2013-03-22 08:41:00,6.6,-15.8,0.00,WSW,252,0.0,0.0,34,0.00,,,0.00,VWS V13.01,2013-03-22 13:41:00,
2013-03-22 08:46:00,7.9,-14.6,0.00,WSW,252,0.0,0.0,34,0.00,,,0.00,VWS V13.01,2013-03-22 13:46:00,
2013-03-22 08:51:00,9.1,-13.5,0.00,WSW,252,0.0,0.0,34,0.00,,,0.00,VWS V13.01,2013-03-22 13:51:00,
2013-03-22 08:56:00,10.0,-12.7,0.00,WSW,252,0.0,0.0,34,0.00,,,0.00,VWS V13.01,2013-03-22 13:56:00,
2013-03-22 09:01:00,10.0,-12.7,0.00,WSW,252,0.0,0.0,34,0.00,,,0.00,VWS V13.01,2013-03-22 14:01:00,
2013-03-22 09:06:00,10.2,-12.6,0.00,WSW,252,0.0,0.0,34,0.00,,,0.00,VWS V13.01,2013-03-22 14:06:00,
2013-03-22 09:11:00,11.7,-11.3,0.00,WSW,252,0.0,0.0,34,0.00,,,0.00,VWS V13.01,2013-03-22 14:11:00,
2013-03-22 09:16:00,12.9,-10.1,0.00,WSW,252,0.0,0.0,34,0.00,,,0.00,VWS V13.01,2013-03-22 14:16:00,
2013-03-22 09:21:00,14.4,-3.6,0.00,WSW,252,0.0,0.0,44,0.00,,,0.00,VWS V13.01,2013-03-22 14:21:00,
2013-03-22 09:26:00,16.2,-1.9,0.00,WSW,252,0.0,0.0,44,0.00,,,0.00,VWS V13.01,2013-03-22 14:26:00,
2013-03-22 09:31:00,18.3,0.1,0.00,WSW,252,0.0,0.0,44,0.00,,,0.00,VWS V13.01,2013-03-22 14:31:00,
2013-03-22 09:36:00,20.5,1.5,0.00,WSW,252,0.0,0.0,43,0.00,,,0.00,VWS V13.01,2013-03-22 14:36:00,
2013-03-22 09:41:00,21.0,1.5,0.00,WSW,252,0.0,0.0,42,0.00,,,0.00,VWS V13.01,2013-03-22 14:41:00,
2013-03-22 09:46:00,21.4,0.8,0.00,WSW,252,0.0,0.0,40,0.00,,,0.00,VWS V13.01,2013-03-22 14:46:00,
2013-03-22 09:51:00,21.2,-1.0,0.00,WSW,252,0.0,0.0,37,0.00,,,0.00,VWS V13.01,2013-03-22 14:51:00,
2013-03-22 09:56:00,21.4,-1.4,0.00,WSW,252,0.0,0.0,36,0.00,,,0.00,VWS V13.01,2013-03-22 14:56:00,
2013-03-22 10:01:00,21.2,-2.2,0.00,WSW,252,0.0,0.0,35,0.00,,,0.00,VWS V13.01,2013-03-22 15:01:00,
2013-03-22 10:07:00,21.7,-2.3,0.00,WSW,252,0.0,0.0,34,0.00,,,0.00,VWS V13.01,2013-03-22 15:07:00,
2013-03-22 10:12:00,22.3,-2.4,0.00,WSW,252,0.0,0.0,33,0.00,,,0.00,VWS V13.01,2013-03-22 15:12:00,
2013-03-22 10:17:00,22.5,-2.3,0.00,WSW,252,0.0,0.0,33,0.00,,,0.00,VWS V13.01,2013-03-22 15:17:00,
2013-03-22 10:22:00,23.4,-1.5,0.00,WSW,252,2.2,2.2,33,0.00,,,0.00,VWS V13.01,2013-03-22 15:22:00,
2013-03-22 10:27:00,23.9,-1.0,0.00,ESE,114,2.7,3.1,33,0.00,,,0.00,VWS V13.01,2013-03-22 15:27:00,
2013-03-22 10:32:00,24.4,-0.5,0.00,ENE,57,2.7,3.6,33,0.00,,,0.00,VWS V13.01,2013-03-22 15:32:00,
2013-03-22 10:37:00,25.3,0.3,0.00,NE,51,3.6,4.0,33,0.00,,,0.00,VWS V13.01,2013-03-22 15:37:00,
2013-03-22 10:42:00,26.6,1.4,0.00,North,2,3.6,3.6,33,0.00,,,0.00,VWS V13.01,2013-03-22 15:42:00,
2013-03-22 10:47:00,26.8,0.9,0.00,NNW,339,2.7,4.9,32,0.00,,,0.00,VWS V13.01,2013-03-22 15:47:00,
2013-03-22 10:52:00,27.5,1.5,0.00,ESE,111,3.1,3.1,32,0.00,,,0.00,VWS V13.01,2013-03-22 15:52:00,
2013-03-22 10:57:00,27.7,1.0,0.00,East,100,3.6,3.6,31,0.00,,,0.00,VWS V13.01,2013-03-22 15:57:00,
2013-03-22 11:02:00,28.2,1.5,0.00,ESE,112,3.1,3.1,31,0.00,,,0.00,VWS V13.01,2013-03-22 16:02:00,
2013-03-22 11:07:00,28.8,2.0,0.00,ESE,123,3.1,3.1,31,0.00,,,0.00,VWS V13.01,2013-03-22 16:07:00,
2013-03-22 11:12:00,28.8,2.0,0.00,ESE,107,3.6,4.0,31,0.00,,,0.00,VWS V13.01,2013-03-22 16:12:00,
2013-03-22 11:17:00,29.3,2.4,0.00,SE,128,3.6,4.0,31,0.00,,,0.00,VWS V13.01,2013-03-22 16:17:00,
2013-03-22 11:22:00,28.9,2.1,0.00,ESE,119,2.2,2.2,31,0.00,,,0.00,VWS V13.01,2013-03-22 16:22:00,
2013-03-22 11:27:00,30.0,3.1,0.00,East,95,3.1,3.1,31,0.00,,,0.00,VWS V13.01,2013-03-22 16:27:00,
2013-03-22 11:32:00,31.3,3.5,0.00,ESE,109,3.1,3.1,30,0.00,,,0.00,VWS V13.01,2013-03-22 16:32:00,
2013-03-22 11:37:00,31.8,3.9,0.00,East,89,3.1,3.1,30,0.00,,,0.00,VWS V13.01,2013-03-22 16:37:00,
2013-03-22 11:42:00,32.2,4.2,0.00,ESE,102,3.6,4.0,30,0.00,,,0.00,VWS V13.01,2013-03-22 16:42:00,
2013-03-22 11:47:00,31.3,3.5,0.00,ESE,105,5.4,5.4,30,0.00,,,0.00,VWS V13.01,2013-03-22 16:47:00,
2013-03-22 11:52:00,30.4,2.7,0.00,ESE,108,4.5,5.4,30,0.00,,,0.00,VWS V13.01,2013-03-22 16:52:00,
2013-03-22 11:57:00,30.4,2.7,0.00,ESE,116,5.4,5.4,30,0.00,,,0.00,VWS V13.01,2013-03-22 16:57:00,
2013-03-22 12:03:00,30.4,2.7,0.00,SE,124,5.8,6.3,30,0.00,,,0.00,VWS V13.01,2013-03-22 17:03:00,
2013-03-22 12:08:00,30.6,2.8,0.00,ESE,123,5.4,5.4,30,0.00,,,0.00,VWS V13.01,2013-03-22 17:08:00,
2013-03-22 12:13:00,30.9,3.1,0.00,ESE,117,4.9,5.4,30,0.00,,,0.00,VWS V13.01,2013-03-22 17:13:00,
2013-03-22 12:18:00,31.1,3.3,0.00,SE,130,5.4,5.4,30,0.00,,,0.00,VWS V13.01,2013-03-22 17:18:00,
2013-03-22 12:23:00,32.5,4.6,0.00,ESE,113,5.4,5.4,30,0.00,,,0.00,VWS V13.01,2013-03-22 17:23:00,
2013-03-22 12:28:00,32.4,2.9,0.00,ESE,120,4.9,4.9,28,0.00,,,0.00,VWS V13.01,2013-03-22 17:28:00,
2013-03-22 12:33:00,32.4,2.9,0.00,SE,132,4.0,4.0,28,0.00,,,0.00,VWS V13.01,2013-03-22 17:33:00,
2013-03-22 12:38:00,32.7,4.7,0.00,ESE,110,4.5,4.9,30,0.00,,,0.00,VWS V13.01,2013-03-22 17:38:00,
2013-03-22 12:43:00,33.3,5.2,0.00,ESE,110,0.0,0.0,30,0.00,,,0.00,VWS V13.01,2013-03-22 17:43:00,
2013-03-22 12:48:00,34.0,5.8,0.00,West,271,2.7,2.7,30,0.00,,,0.00,VWS V13.01,2013-03-22 17:48:00,
2013-03-22 12:53:00,34.5,6.3,0.00,North,357,0.0,0.0,30,0.00,,,0.00,VWS V13.01,2013-03-22 17:53:00,
2013-03-22 12:58:00,35.4,7.1,0.00,ESE,103,0.0,0.0,30,0.00,,,0.00,VWS V13.01,2013-03-22 17:58:00,
2013-03-22 13:03:00,36.1,5.4,0.00,SE,133,5.8,5.8,27,0.00,,,0.00,VWS V13.01,2013-03-22 18:03:00,
2013-03-22 13:08:00,35.1,4.5,0.00,SE,128,0.0,0.0,27,0.00,,,0.00,VWS V13.01,2013-03-22 18:08:00,
2013-03-22 13:13:00,35.6,4.9,0.00,SE,128,0.0,0.0,27,0.00,,,0.00,VWS V13.01,2013-03-22 18:13:00,
2013-03-22 13:18:00,35.1,4.5,0.00,West,281,4.9,4.9,27,0.00,,,0.00,VWS V13.01,2013-03-22 18:18:00,
2013-03-22 13:23:00,34.3,3.8,0.00,NNW,332,3.1,3.1,27,0.00,,,0.00,VWS V13.01,2013-03-22 18:23:00,
2013-03-22 13:28:00,34.2,3.7,0.00,NNE,19,3.1,3.6,27,0.00,,,0.00,VWS V13.01,2013-03-22 18:28:00,
2013-03-22 13:33:00,34.7,4.2,0.00,NNW,337,3.6,5.4,27,0.00,,,0.00,VWS V13.01,2013-03-22 18:33:00,
2013-03-22 13:38:00,34.3,2.2,0.00,NNW,335,4.9,6.3,25,0.00,,,0.00,VWS V13.01,2013-03-22 18:38:00,
2013-03-22 13:43:00,33.8,1.7,0.00,NW,322,4.0,5.4,25,0.00,,,0.00,VWS V13.01,2013-03-22 18:43:00,
2013-03-22 13:48:00,33.6,1.6,0.00,NE,49,2.7,4.0,25,0.00,,,0.00,VWS V13.01,2013-03-22 18:48:00,
2013-03-22 13:53:00,34.7,4.2,0.00,NNE,24,0.0,2.7,27,0.00,,,0.00,VWS V13.01,2013-03-22 18:53:00,
2013-03-22 13:58:00,34.9,4.3,0.00,NNW,329,3.6,3.6,27,0.00,,,0.00,VWS V13.01,2013-03-22 18:58:00,
2013-03-22 14:03:00,34.7,4.2,0.00,North,357,5.4,5.8,27,0.00,,,0.00,VWS V13.01,2013-03-22 19:03:00,
2013-03-22 14:08:00,34.3,2.2,0.00,North,357,4.0,4.0,25,0.00,,,0.00,VWS V13.01,2013-03-22 19:08:00,
2013-03-22 14:13:00,34.3,2.2,0.00,NW,315,4.9,5.8,25,0.00,,,0.00,VWS V13.01,2013-03-22 19:13:00,
2013-03-22 14:18:00,34.2,2.0,0.00,North,357,6.3,6.3,25,0.00,,,0.00,VWS V13.01,2013-03-22 19:18:00,
2013-03-22 14:23:00,34.0,3.5,0.00,North,350,3.1,4.9,27,0.00,,,0.00,VWS V13.01,2013-03-22 19:23:00,
2013-03-22 14:28:00,34.0,3.5,0.00,NW,314,3.1,3.1,27,0.00,,,0.00,VWS V13.01,2013-03-22 19:28:00,
2013-03-22 14:33:00,34.0,3.5,0.00,NW,313,8.1,8.1,27,0.00,,,0.00,VWS V13.01,2013-03-22 19:33:00,
2013-03-22 14:38:00,33.8,3.4,0.00,West,271,0.0,2.7,27,0.00,,,0.00,VWS V13.01,2013-03-22 19:38:00,
2013-03-22 14:43:00,34.0,3.5,0.00,NW,314,2.2,3.1,27,0.00,,,0.00,VWS V13.01,2013-03-22 19:43:00,
2013-03-22 14:48:00,34.0,3.5,0.00,North,349,3.1,4.9,27,0.00,,,0.00,VWS V13.01,2013-03-22 19:48:00,
2013-03-22 14:53:00,34.0,3.5,0.00,North,349,2.7,5.4,27,0.00,,,0.00,VWS V13.01,2013-03-22 19:53:00,
2013-03-22 14:58:00,34.0,3.5,0.00,NW,313,3.6,3.6,27,0.00,,,0.00,VWS V13.01,2013-03-22 19:58:00,
2013-03-22 15:03:00,34.0,3.5,0.00,NNW,340,0.0,2.7,27,0.00,,,0.00,VWS V13.01,2013-03-22 20:03:00,
2013-03-22 15:08:00,34.2,3.7,0.00,North,9,3.1,3.1,27,0.00,,,0.00,VWS V13.01,2013-03-22 20:08:00,
2013-03-22 15:13:00,34.3,3.8,0.00,ENE,69,0.0,0.0,27,0.00,,,0.00,VWS V13.01,2013-03-22 20:13:00,
2013-03-22 15:18:00,34.3,3.8,0.00,ESE,123,2.7,3.1,27,0.00,,,0.00,VWS V13.01,2013-03-22 20:18:00,
2013-03-22 15:23:00,34.3,3.8,0.00,ENE,57,6.3,6.3,27,0.00,,,0.00,VWS V13.01,2013-03-22 20:23:00,
2013-03-22 15:28:00,34.5,4.0,0.00,NE,46,2.7,3.6,27,0.00,,,0.00,VWS V13.01,2013-03-22 20:28:00,
2013-03-22 15:33:00,34.7,4.2,0.00,West,268,0.0,2.7,27,0.00,,,0.00,VWS V13.01,2013-03-22 20:33:00,
2013-03-22 15:38:00,35.1,4.5,0.00,NNE,31,2.7,3.1,27,0.00,,,0.00,VWS V13.01,2013-03-22 20:38:00,
2013-03-22 15:43:00,35.1,4.5,0.00,South,183,3.6,3.6,27,0.00,,,0.00,VWS V13.01,2013-03-22 20:43:00,
2013-03-22 15:48:00,35.1,4.5,0.00,North,353,4.5,4.5,27,0.00,,,0.00,VWS V13.01,2013-03-22 20:48:00,
2013-03-22 15:53:00,35.2,4.6,0.00,NNW,330,2.7,2.7,27,0.00,,,0.00,VWS V13.01,2013-03-22 20:53:00,
2013-03-22 15:58:00,35.6,4.9,0.00,NNW,344,2.7,4.0,27,0.00,,,0.00,VWS V13.01,2013-03-22 20:58:00,
2013-03-22 16:03:00,35.6,2.4,0.00,NNE,20,3.6,4.0,24,0.00,,,0.00,VWS V13.01,2013-03-22 21:03:00,
2013-03-22 16:08:00,35.8,2.5,0.00,WNW,302,2.2,2.7,24,0.00,,,0.00,VWS V13.01,2013-03-22 21:08:00,
2013-03-22 16:13:00,35.6,2.4,0.00,NW,322,2.7,3.1,24,0.00,,,0.00,VWS V13.01,2013-03-22 21:13:00,
2013-03-22 16:18:00,35.4,3.1,0.00,North,353,0.0,0.0,25,0.00,,,0.00,VWS V13.01,2013-03-22 21:18:00,
2013-03-22 16:23:00,35.6,4.9,0.00,NNW,339,2.7,2.7,27,0.00,,,0.00,VWS V13.01,2013-03-22 21:23:00,
2013-03-22 16:28:00,35.8,5.1,0.00,NNW,334,3.1,3.6,27,0.00,,,0.00,VWS V13.01,2013-03-22 21:28:00,
2013-03-22 16:33:00,35.6,2.4,0.00,North,353,0.0,3.6,24,0.00,,,0.00,VWS V13.01,2013-03-22 21:33:00,
2013-03-22 16:38:00,35.6,2.4,0.00,ESE,113,3.1,4.0,24,0.00,,,0.00,VWS V13.01,2013-03-22 21:38:00,
2013-03-22 16:43:00,35.6,2.4,0.00,NW,319,3.1,3.1,24,0.00,,,0.00,VWS V13.01,2013-03-22 21:43:00,
2013-03-22 16:48:00,35.4,3.1,0.00,NW,320,0.0,2.7,25,0.00,,,0.00,VWS V13.01,2013-03-22 21:48:00,
2013-03-22 16:53:00,35.4,3.1,0.00,ENE,75,0.0,0.0,25,0.00,,,0.00,VWS V13.01,2013-03-22 21:53:00,
2013-03-22 16:58:00,35.2,3.0,0.00,SE,137,2.2,2.2,25,0.00,,,0.00,VWS V13.01,2013-03-22 21:58:00,
2013-03-22 17:03:00,35.1,2.8,0.00,NW,319,2.2,2.2,25,0.00,,,0.00,VWS V13.01,2013-03-22 22:03:00,
2013-03-22 17:08:00,35.4,3.1,0.00,NNW,337,5.4,7.6,25,0.00,,,0.00,VWS V13.01,2013-03-22 22:08:00,
2013-03-22 17:13:00,35.4,3.1,0.00,North,353,0.0,2.7,25,0.00,,,0.00,VWS V13.01,2013-03-22 22:13:00,
2013-03-22 17:18:00,35.6,2.4,0.00,NNW,329,2.2,2.2,24,0.00,,,0.00,VWS V13.01,2013-03-22 22:18:00,
2013-03-22 17:23:00,35.8,2.5,0.00,WNW,286,0.0,2.7,24,0.00,,,0.00,VWS V13.01,2013-03-22 22:23:00,
2013-03-22 17:28:00,35.8,5.1,0.00,NNW,327,0.0,0.0,27,0.00,,,0.00,VWS V13.01,2013-03-22 22:28:00,
2013-03-22 17:33:00,35.8,5.1,0.00,NW,314,2.7,2.7,27,0.00,,,0.00,VWS V13.01,2013-03-22 22:33:00,
2013-03-22 17:38:00,35.4,3.1,0.00,NW,320,0.0,0.0,25,0.00,,,0.00,VWS V13.01,2013-03-22 22:38:00,
2013-03-22 17:43:00,35.1,2.8,0.00,NW,308,2.2,2.2,25,0.00,,,0.00,VWS V13.01,2013-03-22 22:43:00,
2013-03-22 17:48:00,34.9,4.3,0.00,WNW,297,0.0,0.0,27,0.00,,,0.00,VWS V13.01,2013-03-22 22:48:00,
2013-03-22 17:53:00,34.9,2.6,0.00,West,263,2.7,2.7,25,0.00,,,0.00,VWS V13.01,2013-03-22 22:53:00,
2013-03-22 17:58:00,34.9,2.6,0.00,West,264,2.2,3.1,25,0.00,,,0.00,VWS V13.01,2013-03-22 22:58:00,
2013-03-22 18:03:00,34.7,2.5,0.00,WNW,287,0.0,0.0,25,0.00,,,0.00,VWS V13.01,2013-03-22 23:03:00,
2013-03-22 18:08:00,34.3,3.8,0.00,WNW,301,0.0,0.0,27,0.00,,,0.00,VWS V13.01,2013-03-22 23:08:00,
2013-03-22 18:13:00,34.2,2.0,0.00,West,273,2.2,2.2,25,0.00,,,0.00,VWS V13.01,2013-03-22 23:13:00,
2013-03-22 18:18:00,34.0,1.9,0.00,West,273,0.0,0.0,25,0.00,,,0.00,VWS V13.01,2013-03-22 23:18:00,
2013-03-22 18:23:00,33.8,3.4,0.00,WNW,302,2.7,3.1,27,0.00,,,0.00,VWS V13.01,2013-03-22 23:23:00,
2013-03-22 18:28:00,33.6,4.0,0.00,West,261,2.2,3.1,28,0.00,,,0.00,VWS V13.01,2013-03-22 23:28:00,
2013-03-22 18:33:00,33.3,3.7,0.00,NNW,340,0.0,2.7,28,0.00,,,0.00,VWS V13.01,2013-03-22 23:33:00,
2013-03-22 18:38:00,32.9,3.4,0.00,NW,318,0.0,0.0,28,0.00,,,0.00,VWS V13.01,2013-03-22 23:38:00,
2013-03-22 18:43:00,32.7,3.2,0.00,WNW,287,2.7,2.7,28,0.00,,,0.00,VWS V13.01,2013-03-22 23:43:00,
2013-03-22 18:48:00,32.5,3.1,0.00,West,280,0.0,0.0,28,0.00,,,0.00,VWS V13.01,2013-03-22 23:48:00,
2013-03-22 18:53:00,32.2,2.8,0.00,WNW,286,0.0,0.0,28,0.00,,,0.00,VWS V13.01,2013-03-22 23:53:00,
2013-03-22 18:58:00,32.0,0.2,0.00,NNW,330,0.0,0.0,25,0.00,,,0.00,VWS V13.01,2013-03-22 23:58:00,
2013-03-22 19:03:00,31.6,2.3,0.00,NNW,336,0.0,2.2,28,0.00,,,0.00,VWS V13.01,2013-03-23 00:03:00,
2013-03-22 19:08:00,31.1,-0.6,0.00,NNW,335,0.0,0.0,25,0.00,,,0.00,VWS V13.01,2013-03-23 00:08:00,
2013-03-22 19:13:00,30.6,-1.1,0.00,NNW,335,0.0,0.0,25,0.00,,,0.00,VWS V13.01,2013-03-23 00:13:00,
2013-03-22 19:18:00,30.2,-1.4,0.00,NNW,336,0.0,0.0,25,0.00,,,0.00,VWS V13.01,2013-03-23 00:18:00,
2013-03-22 19:23:00,29.7,-1.8,0.00,NNW,335,0.0,0.0,25,0.00,,,0.00,VWS V13.01,2013-03-23 00:23:00,
2013-03-22 19:28:00,29.3,-2.2,0.00,NNW,335,0.0,0.0,25,0.00,,,0.00,VWS V13.01,2013-03-23 00:28:00,
2013-03-22 19:33:00,28.8,-2.6,0.00,NNW,336,0.0,0.0,25,0.00,,,0.00,VWS V13.01,2013-03-23 00:33:00,
2013-03-22 19:38:00,28.4,-2.1,0.00,NNW,335,0.0,0.0,26,0.00,,,0.00,VWS V13.01,2013-03-23 00:38:00,
2013-03-22 19:43:00,28.0,-2.4,0.00,NNW,335,0.0,0.0,26,0.00,,,0.00,VWS V13.01,2013-03-23 00:43:00,
2013-03-22 19:48:00,27.9,-2.6,0.00,NNW,335,0.0,0.0,26,0.00,,,0.00,VWS V13.01,2013-03-23 00:48:00,
2013-03-22 19:53:00,27.7,-2.7,0.00,NNW,336,0.0,0.0,26,0.00,,,0.00,VWS V13.01,2013-03-23 00:53:00,
2013-03-22 19:58:00,27.3,-3.0,0.00,NNW,335,0.0,0.0,26,0.00,,,0.00,VWS V13.01,2013-03-23 00:58:00,
2013-03-22 20:03:00,26.6,-3.7,0.00,NNW,335,0.0,0.0,26,0.00,,,0.00,VWS V13.01,2013-03-23 01:03:00,
2013-03-22 20:08:00,26.2,-4.0,0.00,NNW,335,0.0,0.0,26,0.00,,,0.00,VWS V13.01,2013-03-23 01:08:00,
2013-03-22 20:13:00,26.2,-1.7,0.00,NNW,336,0.0,0.0,29,0.00,,,0.00,VWS V13.01,2013-03-23 01:13:00,
2013-03-22 20:18:00,26.1,-1.8,0.00,NNW,335,0.0,0.0,29,0.00,,,0.00,VWS V13.01,2013-03-23 01:18:00,
2013-03-22 20:23:00,25.3,-2.5,0.00,NNW,335,0.0,0.0,29,0.00,,,0.00,VWS V13.01,2013-03-23 01:23:00,
2013-03-22 20:28:00,24.3,-3.4,0.00,NNW,335,0.0,0.0,29,0.00,,,0.00,VWS V13.01,2013-03-23 01:28:00,
2013-03-22 20:33:00,24.1,-3.6,0.00,NNW,335,0.0,0.0,29,0.00,,,0.00,VWS V13.01,2013-03-23 01:33:00,
2013-03-22 20:38:00,24.4,-3.2,0.00,NNW,336,0.0,0.0,29,0.00,,,0.00,VWS V13.01,2013-03-23 01:38:00,
2013-03-22 20:43:00,25.2,-1.2,0.00,NNW,335,0.0,0.0,31,0.00,,,0.00,VWS V13.01,2013-03-23 01:43:00,
2013-03-22 20:48:00,25.9,-0.6,0.00,NNW,336,0.0,0.0,31,0.00,,,0.00,VWS V13.01,2013-03-23 01:48:00,
2013-03-22 20:53:00,25.9,-0.6,0.00,NNW,335,0.0,0.0,31,0.00,,,0.00,VWS V13.01,2013-03-23 01:53:00,
2013-03-22 20:58:00,25.7,-0.7,0.00,NNW,336,0.0,0.0,31,0.00,,,0.00,VWS V13.01,2013-03-23 01:58:00,
2013-03-22 21:03:00,25.0,-1.4,0.00,NNW,335,0.0,0.0,31,0.00,,,0.00,VWS V13.01,2013-03-23 02:03:00,
2013-03-22 21:08:00,24.4,-1.2,0.00,NNW,335,0.0,0.0,32,0.00,,,0.00,VWS V13.01,2013-03-23 02:08:00,
2013-03-22 21:13:00,23.7,-1.8,0.00,NNW,336,0.0,0.0,32,0.00,,,0.00,VWS V13.01,2013-03-23 02:13:00,
2013-03-22 21:18:00,23.4,-2.1,0.00,NNW,336,0.0,0.0,32,0.00,,,0.00,VWS V13.01,2013-03-23 02:18:00,
2013-03-22 21:23:00,22.8,-2.6,0.00,NNW,335,0.0,0.0,32,0.00,,,0.00,VWS V13.01,2013-03-23 02:23:00,
2013-03-22 21:28:00,22.5,-2.9,0.00,NNW,335,0.0,0.0,32,0.00,,,0.00,VWS V13.01,2013-03-23 02:28:00,
2013-03-22 21:33:00,21.9,-3.4,0.00,NNW,335,0.0,0.0,32,0.00,,,0.00,VWS V13.01,2013-03-23 02:33:00,
2013-03-22 21:38:00,21.2,-4.0,0.00,NNW,336,0.0,0.0,32,0.00,,,0.00,VWS V13.01,2013-03-23 02:38:00,
2013-03-22 21:43:00,21.2,-4.0,0.00,NNE,33,0.0,0.0,32,0.00,,,0.00,VWS V13.01,2013-03-23 02:43:00,
2013-03-22 21:48:00,22.1,-2.6,0.00,NNW,330,0.0,0.0,33,0.00,,,0.00,VWS V13.01,2013-03-23 02:48:00,
2013-03-22 21:53:00,22.5,-2.3,0.00,NNW,329,0.0,0.0,33,0.00,,,0.00,VWS V13.01,2013-03-23 02:53:00,
2013-03-22 21:58:00,22.6,-2.1,0.00,NNW,343,0.0,0.0,33,0.00,,,0.00,VWS V13.01,2013-03-23 02:58:00,
2013-03-22 22:03:00,23.2,-1.6,0.00,North,350,0.0,3.1,33,0.00,,,0.00,VWS V13.01,2013-03-23 03:03:00,
2013-03-22 22:08:00,23.7,-1.2,0.00,NNW,332,0.0,0.0,33,0.00,,,0.00,VWS V13.01,2013-03-23 03:08:00,
2013-03-22 22:13:00,24.4,0.1,0.00,NNW,336,2.2,2.7,34,0.00,,,0.00,VWS V13.01,2013-03-23 03:13:00,
2013-03-22 22:18:00,24.4,0.1,0.00,NNW,337,0.0,0.0,34,0.00,,,0.00,VWS V13.01,2013-03-23 03:18:00,
2013-03-22 22:23:00,23.5,-1.3,0.00,NNW,339,0.0,0.0,33,0.00,,,0.00,VWS V13.01,2013-03-23 03:23:00,
2013-03-22 22:28:00,23.2,-1.6,0.00,NNW,340,0.0,0.0,33,0.00,,,0.00,VWS V13.01,2013-03-23 03:28:00,
2013-03-22 22:33:00,23.9,-0.4,0.00,North,0,0.0,2.7,34,0.00,,,0.00,VWS V13.01,2013-03-23 03:33:00,
2013-03-22 22:38:00,23.9,-0.4,0.00,NW,326,0.0,0.0,34,0.00,,,0.00,VWS V13.01,2013-03-23 03:38:00,
2013-03-22 22:43:00,23.0,-1.2,0.00,NW,326,0.0,0.0,34,0.00,,,0.00,VWS V13.01,2013-03-23 03:43:00,
2013-03-22 22:48:00,21.4,-2.6,0.00,NW,326,0.0,0.0,34,0.00,,,0.00,VWS V13.01,2013-03-23 03:48:00,
2013-03-22 22:53:00,20.3,-3.6,0.00,NW,326,0.0,0.0,34,0.00,,,0.00,VWS V13.01,2013-03-23 03:53:00,
2013-03-22 22:58:00,19.8,-4.1,0.00,NW,326,0.0,0.0,34,0.00,,,0.00,VWS V13.01,2013-03-23 03:58:00,
2013-03-22 23:00:00,19.6,-4.2,0.00,NW,326,0.0,0.0,34,0.00,,,0.00,VWS V13.01,2013-03-23 04:00:00,
2013-03-22 23:05:00,19.0,-4.1,0.00,NW,326,0.0,0.0,35,0.00,,,0.00,VWS V13.01,2013-03-23 04:05:00,
2013-03-22 23:10:00,19.2,-3.9,0.00,NW,326,0.0,0.0,35,0.00,,,0.00,VWS V13.01,2013-03-23 04:10:00,
2013-03-22 23:15:00,19.2,-3.3,0.00,NW,326,0.0,0.0,36,0.00,,,0.00,VWS V13.01,2013-03-23 04:15:00,
2013-03-22 23:20:00,18.5,-4.6,0.00,NW,326,0.0,0.0,35,0.00,,,0.00,VWS V13.01,2013-03-23 04:20:00,
2013-03-22 23:25:00,17.6,-4.8,0.00,NW,326,0.0,0.0,36,0.00,,,0.00,VWS V13.01,2013-03-23 04:25:00,
2013-03-22 23:30:00,16.7,-5.6,0.00,NW,326,0.0,0.0,36,0.00,,,0.00,VWS V13.01,2013-03-23 04:30:00,
2013-03-22 23:35:00,16.2,-6.1,0.00,NW,326,0.0,0.0,36,0.00,,,0.00,VWS V13.01,2013-03-23 04:35:00,
2013-03-22 23:40:00,16.3,-5.9,0.00,NW,326,0.0,0.0,36,0.00,,,0.00,VWS V13.01,2013-03-23 04:40:00,
2013-03-22 23:45:00,16.2,-6.1,0.00,NW,326,0.0,0.0,36,0.00,,,0.00,VWS V13.01,2013-03-23 04:45:00,
2013-03-22 23:50:00,16.0,-6.2,0.00,NW,326,0.0,0.0,36,0.00,,,0.00,VWS V13.01,2013-03-23 04:50:00,
2013-03-22 23:55:00,16.0,-6.2,0.00,NW,326,0.0,0.0,36,0.00,,,0.00,VWS V13.01,2013-03-23 04:55:00,